ST-5 SC155

operational
NORAD ID: 28980 Int'l Des: 2006-008 Owner: GSFC Country: US
LEOELLIPTICALRETROGRADE

Über ST-5 SC155

Beschreibung wird geladen...

Live-Position

3D-Globus wird geladen...

Nächste Überflüge

Höhenverlauf

Altitude vs Time

uPlot chart will show altitude changes over time

Zweizeiliger Elementsatz

1 28980U 06008A 26072.45178836 .00024771 27800-5 93846-3 0 9996
2 28980 105.5196 73.5587 1642080 83.5996 294.8670 12.15881315811025
Epoch: 13. März 2026 • Age: 35 hours

Aktueller Status

Höhe 2224.7 km
Geschwindigkeit 6.54 km/s
Subsatellitenpunkt -26.68°S, 97.48°W
Startdatum 22. März 2006
Alter 19.9 years
Typ other

Technische Details

Klassifizierung Payload
Masse 25.00 kg
Trockenmasse 25.00 kg
Gesamtmasse 25.00 kg
Länge 0.50 m
Durchmesser 0.50 m
Spannweite 1.00 m
Form Oct Cyl + Ant
Hersteller GSFC
Bus-Typ ST5
Phasenstatus In Orbit
Besitzer/Staat GSFC/US

Große Konstellationen

Loading constellations...